Regional Weather Roundup
Issued by NWS

Home | Current Version | Previous Version | Text Only | Print | Product List | Glossary On
Versions: 1 2 3 4 5 6 7 8 9 10 11 12 13 14 15 16 17 18 19 20 21 22 23 24 25 26 27 28 29 30 31 32 33 34 35 36 37 38 39 40 41 42 43 44 45 46 47 48 49 50
000
ASUS43 KMKX 201620
RWRWI

WISCONSIN REGIONAL WEATHER ROUNDUP
NATIONAL WEATHER SERVICE MILWAUKEE/SULLIVAN WI
1100 AM CDT FRI APR 20 2018

NOTE: "FAIR" INDICATES FEW OR NO CLOUDS BELOW 12,000 FEET WITH NO
SIGNIFICANT WEATHER AND/OR OBSTRUCTIONS TO VISIBILITY.

WIZ001-002-006>008-014>016-023>028-201700-
NORTHWEST WISCONSIN

CITY           SKY/WX    TMP DP  RH WIND       PRES   REMARKS
SUPERIOR ARPT  FAIR      54  30  40 W6        30.46S
ASHLAND        FAIR      51  22  31 SW8       30.46F
HAYWARD        FAIR      48  29  47 VRB5      30.47F
SIREN          FAIR      49  21  34 W7        30.48S
CUMBERLAND     FAIR      41  23  48 S5        30.49S
RICE LAKE      FAIR      44  23  44 CALM      30.51S
CHETEK         FAIR      47  24  41 N7        30.50S
LADYSMITH      FAIR      47  26  43 CALM      30.50F
EAU CLAIRE     FAIR      46  25  43 CALM      30.50S
MENOMONIE      FAIR      46  24  42 CALM      30.51S
NEW RICHMOND   FAIR      43  19  37 CALM      30.50F
OSCEOLA        FAIR      45  25  46 CALM      30.53S
$$

WIZ003>005-009-010-017-018-201700-
NORTH CENTRAL WISCONSIN

CITY           SKY/WX    TMP DP  RH WIND       PRES   REMARKS
MANITOWISH WTR FAIR      49  17  27 W6        30.45S
ARBOR VITAE    FAIR      52  14  22 W7        30.45F
WOODRUFF       FAIR      52  14  22 W7        30.45F
RHINELANDER    FAIR      49  18  29 W6        30.46F
EAGLE RIVER    FAIR      49  14  25 W7        30.44F
LAND O LAKES   FAIR      53  10  18 NW9       30.46S
PHILLIPS       FAIR      49  19  30 CALM      30.46F
TOMAHAWK       FAIR      50  13  23 S3        30.47F
MEDFORD        FAIR      44  22  41 S3        30.48F
MERRILL          N/A     50  19  28 SW3       30.49S
$$

WIZ029-030-035-036-043>047-201700-
CENTRAL WISCONSIN

CITY           SKY/WX    TMP DP  RH WIND       PRES   REMARKS
WAUSAU         FAIR      49  18  29 NW3       30.47S
MOSINEE        MOSUNNY   46  21  36 CALM      30.50S
MARSHFIELD     FAIR      46  21  37 W3        30.48F
STEVENS POINT  FAIR      45  22  40 S5        30.50S
WAUPACA        FAIR      52  12  20 CALM      30.50S
WAUTOMA        NOT AVBL
WISC RAPIDS    FAIR      48  20  32 CALM      30.51F
CAMP DOUGLAS   PTSUNNY   46  19  34 W3        30.51S
$$

WIZ011>013-019>022-031-037>040-048>050-201700-
NORTHEAST WISCONSIN

CITY           SKY/WX    TMP DP  RH WIND       PRES   REMARKS
ANTIGO         FAIR      42  24  48 CALM      30.48S
SHAWANO        FAIR      53   9  16 SW3       30.49S
OCONTO         FAIR      47  16  29 SE5       30.50R
STURGEON BAY   FAIR      48  11  22 W5        30.51R
GREEN BAY      FAIR      40  25  55 SE6       30.51R
MANITOWOC      FAIR      47  15  27 S12       30.52R
APPLETON       MOSUNNY   46  18  31 VRB3      30.49R
CLINTONVILLE   FAIR      47  19  32 SE3       30.50S
OSHKOSH        FAIR      43  22  43 S3        30.51R
$$

WIZ032>034-041-042-053>061-201700-
SOUTHWEST WISCONSIN

CITY           SKY/WX    TMP DP  RH WIND       PRES   REMARKS
LA CROSSE      FAIR      45  29  53 CALM      30.52F
SPARTA         FAIR      47  22  36 CALM      30.52S
VIROQUA        FAIR      45  23  42 CALM      30.50S
BOSCOBEL       FAIR      50  27  40 CALM      30.52F
PRAIRIE DU CHI FAIR      47  26  44 CALM      30.52F
PLATTEVILLE    FAIR      49  25  39 E3        30.51F
$$

WIZ056-057-062-063-064-067-068-201700-
SOUTH CENTRAL WISCONSIN

CITY           SKY/WX    TMP DP  RH WIND       PRES   REMARKS
REEDSBURG      FAIR      47  22  36 CALM      30.50F
BARABOO/DELLS  FAIR      46  19  34 SW3       30.51S
LONE ROCK      FAIR      49  29  46 CALM      30.52F
MINERAL POINT  FAIR      52  23  32 CALM      30.50F
MADISON        PTSUNNY   49  24  37 NW6       30.51F
MIDDLETON      FAIR      49  28  43 N3        30.51F
WATERTOWN      FAIR      42  22  44 CALM      30.51F
MONROE         FAIR      50  16  25 CALM      30.51S
JANESVILLE     MOSUNNY   54  19  26 NW6       30.52S
$$

WIZ051-052-058>065-066-070>072-201700-
SOUTHEAST WISCONSIN

CITY           SKY/WX    TMP DP  RH WIND       PRES   REMARKS
MILWAUKEE      FAIR      47  25  42 E8        30.52R
WAUKESHA       SUNNY     46  21  36 CALM      30.52S
MILWAUKEE/TIMM SUNNY     48  19  32 S5        30.52R
RACINE         FAIR      49  25  39 SE7       30.54R
BURLINGTON     FAIR      48  25  40 CALM      30.51F
KENOSHA        FAIR      53  28  38 VRB5      30.51S
FOND DU LAC    FAIR      46  21  37 CALM      30.51S
SHEBOYGAN      FAIR      47  21  35 S10       30.51S
WEST BEND      FAIR      46  23  39 SW6       30.51R
JUNEAU         FAIR      39  22  50 CALM      30.52S
$$

LSZ147-162-201700-
LAKE SUPERIOR

STATION/POSITION TIME  TEMP    WIND        PRES    WAVE
                       AIR SEA DIR/SP/G            HT/PER
                 (UTC) (F)     (DEG/KT/KT) (MB)    (FT/S)
DEVILS ISLAND    1600   39     250/ 12/ 14 1032.1S
SAXON HARBOR     1540   47      20/  1/  2 1030.8S
$$

LMZ867-665-643>646-201700-
LAKE MICHIGAN

STATION/POSITION TIME  TEMP    WIND        PRES    WAVE
                       AIR SEA DIR/SP/G            HT/PER
                 (UTC) (F)     (DEG/KT/KT) (MB)    (FT/S)
NORTHPORT PIER   1600   38                 1032.2
KEWAUNEE LAKESHO 1554   48     200/  5/  7 1032.3R
SHEBOYGAN LAKESH 1600   43     150/ 10/ 11 1033.5S
PORT WASHINGTON  1540   43     130/  3/  4 1034.2R
MILWAUKEE LAKESH 1600   44      80/  2/  2   N/A
KENOSHA   LAKESH 1600   43                 1033.5
$$

TC  - TEMPERATURE IN CELSIUS
VSB - VISIBILITY IN STATUTE MILES
WCI - WIND CHILL INDEX
HX  - HEAT INDEX





USA.gov is the U.S. government's official web portal to all federal, state and local government web resources and services.